Regional Weather Roundup
Issued by NWS Charleston, SC

Home | Current Version | Previous Version | Text Only | Print | Product List | Glossary On
Versions: 1 2 3 4 5 6 7 8 9 10 11 12 13 14 15 16 17 18 19 20 21 22 23 24 25 26 27 28 29 30 31 32 33 34 35 36 37 38 39 40 41 42 43 44 45 46 47 48 49 50
000
ASUS42 KCHS 291727
RWRCHS
REGIONAL WEATHER ROUNDUP
NATIONAL WEATHER SERVICE CHARLESTON SC
100 PM EDT SAT AUG 29 2015

NOTE: "FAIR" INDICATES FEW OR NO CLOUDS BELOW 12,000 FEET WITH NO
SIGNIFICANT WEATHER AND/OR OBSTRUCTIONS TO VISIBILITY.

NOT ALL STATIONS ARE QUALITY CONTROLLED BY THE NATIONAL
WEATHER SERVICE. USE DATA WITH CAUTION...ESPECIALLY
DEWPOINT OBSERVATIONS.

SCZ027-030-031-034>040-042>050-291800-
...SOUTHEAST SOUTH CAROLINA...

CITY           SKY/WX    TMP DP  RH WIND       PRES   REMARKS
N CHARLESTON   PTSUNNY   81  67  62 NE9       30.18R
WATERFRONT PRK   N/A     83  72  69 NE6       30.15S
MOUNT PLEASANT FAIR      82  72  69 CALM      30.17S
JOHNS ISLAND   FAIR      82  70  65 NE7       30.17S
PINOPOLIS        N/A     84  63  48 NE7       30.11F
MONCKS CORNER  FAIR      84  61  45 N3        30.18F
SUMMERVILLE    FAIR      81  63  54 N6        30.20S
BEAUFORT MCAS  RAIN      75  71  87 NE7       30.17F
BEAUFORT ARPT  RAIN      75  72  88 N7        30.16F
HILTON HEAD IS RAIN      75  75 100 N5        30.17F
WALTERBORO     LGT RAIN  81  63  54 NE6       30.20R
ALLENDALE      FAIR      82  66  57 VRB5G12   30.19S

...SOUTHERN MIDLANDS AND PEE DEE...

CITY           SKY/WX    TMP DP  RH WIND       PRES   REMARKS
GEORGETOWN     NOT AVBL
KINGSTREE      NOT AVBL
ORANGEBURG     CLOUDY    82  56  40 NE12      30.21S
BARNWELL       PTSUNNY   84  61  45 E12       30.20F
AIKEN          FAIR      81  54  39 NE9       30.25F
MANNING        FAIR      84  54  34 NE9       30.20S
COLUMBIA       CLOUDY    84  60  44 NE7       30.21F
SUMTER         CLOUDY    85  56  37 E13       30.19F
FLORENCE       PTSUNNY   83  58  42 E12       30.21S
MYRTLE BEACH   MOSUNNY   82  66  57 N10       30.20F
N MYRTLE BEACH CLOUDY    83  68  60 NE7       30.17F

$$

GAZ063-065-086>088-099>101-113>116-118-119-134>141-150-291800-
...SOUTHEAST GEORGIA...

CITY           SKY/WX    TMP DP  RH WIND       PRES   REMARKS
SAVANNAH ARPT  CLOUDY    80  74  81 NE12      30.18S
HUNTER AAF     RAIN      75  75 100 E9        30.15S
FORT STEWART   PTSUNNY   82  73  74 VRB7      30.14F
STATESBORO     PTSUNNY   82  73  74 NE6       30.19S
SYLVANIA       CLOUDY    83  72  68 E10       30.20S
CLAXTON        NOT AVBL

...CSRA...CENTRAL AND FAR SOUTHEAST GEORGIA...

CITY           SKY/WX    TMP DP  RH WIND       PRES   REMARKS
THOMSON        CLOUDY    82  69  65 NE9       30.25F
AUGUSTA-BUSH   CLOUDY    82  65  56 E7        30.20F
AUGUSTA-DANIEL CLOUDY    82  63  52 E8        30.22F
SWAINSBORO     FAIR      84  72  65 E7        30.19S
VIDALIA        HVY RAIN  77  73  88 NE6       30.17S
EASTMAN        CLOUDY    76  76 100 E3        30.19F
HAZLEHURST     FAIR      82  73  75 NW5       30.15F
ALMA           PTSUNNY   84  73  69 E8        30.15F HX  90
WAYCROSS       PTSUNNY   88  76  68 E9        30.13F HX  99
JESUP          CLOUDY    86  77  74 E8        30.15F HX  97
BAXLEY         FAIR      86  72  62 SE7       30.14F HX  92
BRUNSWICK      PTSUNNY   84  73  70 NE10      30.15S HX  91
SAINT SIMONS   PTSUNNY   84  73  69 NE12      30.14S HX  90

$$

SCZ027-028-034-036>038-045-046-048>050-GAZ119-141-291800-
...LAKE AND SUPPLEMENTAL COASTAL OBSERVATIONS...

STATION/POSITION TIME  TEMP    WIND        PRES    WAVE   SWELL
                       AIR SEA DIR/SP/G            HT/PER HT/PER/DIR
                 (UTC) (F)     (DEG/KT/KT) (MB)    (FT/S) (FT/S/D)
UPR LAKE MARION  NOT AVBL
WINYAH BAY       1600   80      40/  9     1021.0
LAKE MURRAY      1600   78      70/  2/  6 1022.7F
ACE BASIN NERRS  NOT AVBL
FORT PULASKI     NOT AVBL
SAPELO ISLAND    1700   84      20/ 11     1021.0S

$$

ANZ835-935-AMZ111-154-330-350-352-354-370-450-454-472-291800-
...C-MAN AND BUOY OBSERVATIONS...

STATION/POSITION TIME  TEMP    WIND        PRES    WAVE   SWELL
                       AIR SEA DIR/SP/G            HT/PER HT/PER/DIR
                 (UTC) (F)     (DEG/KT/KT) (MB)    (FT/S) (FT/S/D)
BUOY 41004       1650   80 85   30/ 16/ 17 1020.6S   5/ 6   3/ 8
BUOY 41008       1650   79 85   20/ 14/ 17 1020.8S   3/ 6   2/ 70/11
FOLLY BEACH CMAN 1700   81      60/ 11/ 13 1021.8S
CAPERS NEARSHORE 1608   80      50/ 12/ 16 1021.9F
FRIPP NEARSHORE  1600   81      50/ 16/ 19 1021.0R


STATION/POSITION TIME  TEMP    WIND        PRES    WAVE   SWELL
                       AIR SEA DIR/SP/G            HT/PER HT/PER/DIR
                 (UTC) (F)     (DEG/KT/KT) (MB)    (FT/S) (FT/S/D)
5E ST. MARYS GA  1621      86                N/A     3/11   2/120/11
FRYING PAN BUOY  1650   80 81   20/ 16/ 19 1021.3F   4/ 6   2/100/11
BUOY 41025       1650   79 83   40/ 16/ 19 1020.5F   5/11   3/120/11
CAPE LOOKOUT NC  1700   80      30/ 17/ 19 1020.8F
BUOY 41002       1650   84 84  220/ 10/ 12 1021.4R   5/11   5/100/11
BUOY 41010       1620   85 86  110/  8/ 10 1019.8F
ST AUGUSTINE FL  1700   83 87   60/  6/  7 1020.5F


$$


USA.gov is the U.S. government's official web portal to all federal, state and local government web resources and services.